Location: Newark
(11.4947°N, 0.1467°E)
Time: 14:11:58
(UTC+00:00)

Envisat - Pass Details

Date: 15 November 2019
Orbit: 764 x 766 km, 98.1° (Epoch: 10 December)

Event Time Altitude Azimuth Distance (km) Brightness Sun altitude
Rises 05:19:05 0° 50° (NE) 3,219 6.7 -9.4°
Maximum altitude 05:24:33 10° 99° (E) 2,297 7.1 -8.1°
Drops below altitude 10° 05:24:34 10° 99° (E) 2,297 7.1 -8.1°
Sets 05:29:59 0° 148° (SSE) 3,219 7.1 -6.9°
